Regional Weather Roundup
Issued by NWS

Home | Current Version | Previous Version | Graphics & Text | Print | Product List | Glossary On
Versions: 1 2 3 4 5 6 7 8 9 10 11 12 13 14 15 16 17 18 19 20 21 22 23 24 25 26 27 28 29 30 31 32 33 34 35 36 37 38 39 40 41 42 43 44 45 46 47 48 49 50
000
ASUS44 KMEG 292300
RWRTN
TENNESSEE HOURLY STATE WEATHER ROUNDUP
NATIONAL WEATHER SERVICE MEMPHIS TN
500 PM CST THU JAN 29 2015

TNZ002-004-019-021-049-052-054-088>092-300000-
WEST TENNESSEE

CITY           SKY/WX    TMP DP  RH WIND       PRES   REMARKS
MEMPHIS INTL   CLOUDY    51  36  56 NW16G24   30.24R
NWS MEMPHIS      N/A     50 N/A N/A MISG        N/A
JACKSON        CLOUDY    47  35  63 NW13G26   30.23R
DYERSBURG      CLOUDY    45  27  49 N12       30.28R
UNION CITY     CLOUDY    39  32  75 N10       30.25R WCI  32
PARIS          CLOUDY    39  30  70 NW8       30.23R WCI  34
LEXINGTON      CLOUDY    46  34  61 NW15      30.19R
SAVANNAH         N/A     52  37  58 CALM      30.20R VSB 0
$$

TNZ008-025-027-028-033-062-065-066-300000-
NORTH MIDDLE TENNESSEE

CITY           SKY/WX    TMP DP  RH WIND       PRES   REMARKS
NASHVILLE      CLOUDY    48  37  65 NW16G29   30.15R
CLARKSVILLE    CLOUDY    42  32  67 NW22G29   30.20R
COOKEVILLE     CLOUDY    57  41  54 NW12      30.04R
CROSSVILLE     MOCLDY    55  38  52 VRB7      30.04R
$$

TNZ061-075-076-078-094-096-097-300000-
SOUTH MIDDLE TENNESSEE

CITY           SKY/WX    TMP DP  RH WIND       PRES   REMARKS
FAYETTEVILLE   CLOUDY    55  43  62 MISG      30.09R
TULLAHOMA      CLOUDY    57  39  51 SW9       30.08R
WINCHESTER     CLOUDY    57  43  58 W7        30.09R
COLUMBIA       PTCLDY    54  43  66 NW12      30.11R
SHELBYVILLE    CLOUDY    61  45  55 W7        30.08R
$$

TNZ017-018-042-046-047-300000-
NORTHEAST TENNESSEE

CITY           SKY/WX    TMP DP  RH WIND       PRES   REMARKS
TRI CITIES     PTCLDY    46  33  60 SW8       30.02R
ELIZABETHTON   CLEAR     45  30  57 W3        30.02R
$$

TNZ012-013-036-069-073-074-300000-
CENTRAL EAST TENNESSEE

CITY           SKY/WX    TMP DP  RH WIND       PRES   REMARKS
KNOXVILLE      MOCLDY    53  35  50 SW16      30.04R
OAK RIDGE      CLOUDY    55  34  45 VRB5      30.05R
GATLINBURG     CLEAR     54  34  47 W10       30.03R
$$

TNZ083-085-099-300000-
SOUTHEAST TENNESSEE

CITY           SKY/WX    TMP DP  RH WIND       PRES   REMARKS
CHATTANOOGA    CLOUDY    59  37  44 S7        30.08R
$$

SKY/WX REPORTED AS FAIR MEANS FEW OR NO CLOUDS BELOW
12 THOUSAND FEET.




USA.gov is the U.S. government's official web portal to all federal, state and local government web resources and services.